Location: Hackbridge
(51.3833°N, 0.1500°W)
Time: 21:39:16
(UTC+00:00)

Ariane Rocket - Pass Details

Date: 13 October 2019
Orbit: 760 x 770 km, 98.8° (Epoch: 17 November)

Event Time Altitude Azimuth Distance (km) Brightness Sun altitude
Rises 19:12:43 0° 175° (S) 3,227 6.1 -19.5°
Reaches altitude 10° 19:15:03 10° 179° (S) 2,306 5.3 -19.8°
Maximum altitude 19:20:04 58° 258° (WSW) 898 3.6 -20.6°
Drops below altitude 10° 19:25:07 10° 338° (NNW) 2,327 6.0 -21.4°
Sets 19:27:29 0° 342° (NNW) 3,258 6.7 -21.7°
